• Currently

    Reported at Lexington, Jim Kelly Field Airport, NE
    7:55 AM CST WED JUL 26 2017
  • 72°F22°C
  • Overcast
    Overcast
  • Feels Like:72°F22°CDew Point:68°F20°CHumidity:88% Winds:E 8 mph 13 kph Pressure:29.97 in1015 hPaVisibility:10.00 miles16090.00 meters
Time Weather Temp Dew Point
Humidity Winds Visibility Pressure Precipitation
1 hr 24 hr
Wednesday, July 26
09:15 09:15 Partly Cloudy Partly Cloudy 72°F22°C 68°F20°C 87% E 8 mphE 13 kph 10.0 miles16.1 km 29.97 in1015 hPa 0.00 in0.00 mm --
08:55 08:55 Cloudy Cloudy 71°F22°C 68°F20°C 89% E 8 mphE 13 kph 10.0 miles16.1 km 29.97 in1015 hPa 0.00 in0.00 mm --
08:35 08:35 Mostly Cloudy Mostly Cloudy 71°F22°C 67°F20°C 89% ENE 7 mphENE 11 kph 10.0 miles16.1 km 29.97 in1015 hPa 0.00 in0.00 mm --
08:15 08:15 Sunny Sunny 71°F22°C 67°F20°C 89% E 8 mphE 13 kph 10.0 miles16.1 km 29.97 in1015 hPa 0.00 in0.00 mm --
07:55 07:55 Partly Cloudy Partly Cloudy 70°F21°C 67°F20°C 91% ENE 8 mphENE 13 kph 10.0 miles16.1 km 29.97 in1015 hPa 0.00 in0.00 mm --
07:35 07:35 Cloudy Cloudy 70°F21°C 67°F20°C 92% E 7 mphE 11 kph 10.0 miles16.1 km 29.97 in1015 hPa 0.00 in0.00 mm --
07:15 07:15 Cloudy Cloudy 70°F21°C 68°F20°C 92% E 9 mphE 15 kph 10.0 miles16.1 km 29.97 in1015 hPa 0.00 in0.00 mm --
06:55 06:55 Cloudy Cloudy 70°F21°C 68°F20°C 93% ENE 12 mphENE 19 kph 10.0 miles16.1 km 29.97 in1015 hPa 0.00 in0.00 mm --
06:35 06:35 Cloudy Cloudy 70°F21°C 67°F20°C 93% ENE 13 mphENE 20 kph 10.0 miles16.1 km 29.97 in1015 hPa 0.00 in0.00 mm --
06:15 06:15 Cloudy Cloudy 69°F21°C 67°F20°C 93% E 12 mphE 19 kph 10.0 miles16.1 km 29.94 in1014 hPa 0.00 in0.00 mm --
05:55 05:55 Cloudy Cloudy 70°F21°C 67°F20°C 92% E 10 mphE 17 kph 10.0 miles16.1 km 29.94 in1014 hPa 0.00 in0.00 mm --
05:35 05:35 Cloudy Cloudy 70°F21°C 68°F20°C 93% E 12 mphE 19 kph 10.0 miles16.1 km 29.94 in1014 hPa 0.00 in0.00 mm --
05:15 05:15 Cloudy Cloudy 70°F21°C 68°F20°C 93% E 16 mphE 26 kph 10.0 miles16.1 km 29.94 in1014 hPa 0.00 in0.00 mm --
04:55 04:55 Mostly Cloudy Mostly Cloudy 70°F21°C 68°F20°C 93% E 17 mphE 28 kph 10.0 miles16.1 km 29.94 in1014 hPa 0.00 in0.00 mm --
04:35 04:35 Partly Cloudy Partly Cloudy 72°F22°C 68°F20°C 90% ENE 14 mphENE 22 kph 10.0 miles16.1 km 29.94 in1014 hPa 0.00 in0.00 mm --
04:15 04:15 Clear Clear 73°F23°C 69°F20°C 87% E 13 mphE 20 kph 10.0 miles16.1 km 29.94 in1014 hPa 0.00 in0.00 mm --
03:55 03:55 Partly Cloudy Partly Cloudy 73°F23°C 69°F21°C 89% ENE 13 mphENE 20 kph 10.0 miles16.1 km 29.94 in1014 hPa 0.01 in6.45 mm --
03:35 03:35 Mostly Cloudy With Thunderstorms Mostly Cloudy With Thunderstorms 73°F23°C 70°F21°C 90% NE 13 mphNE 20 kph 10.0 miles16.1 km 29.94 in1014 hPa 0.01 in6.45 mm --
03:15 03:15 Mostly Cloudy With Light Drizzle Mostly Cloudy With Light Drizzle 74°F23°C 69°F20°C 84% ESE 10 mphESE 17 kph 10.0 miles16.1 km 29.94 in1014 hPa 0.01 in6.45 mm --
02:55 02:55 Mostly Cloudy With Rain Mostly Cloudy With Rain 75°F24°C 69°F20°C 82% SE 10 mphSE 17 kph 10.0 miles16.1 km 29.94 in1014 hPa 0.02 in12.90 mm --
02:35 02:35 Cloudy With Light Rain Cloudy With Light Rain 75°F24°C 69°F21°C 82% SE 13 mphSE 20 kph 10.0 miles16.1 km 29.91 in1013 hPa 0.02 in12.90 mm --
02:15 02:15 Cloudy With Light Rain Cloudy With Light Rain 74°F24°C 71°F22°C 89% SSE 12 mphSSE 19 kph 10.0 miles16.1 km 29.94 in1014 hPa 0.01 in6.45 mm --
01:55 01:55 Cloudy With Light Thunderstorms Cloudy With Light Thunderstorms 74°F24°C 68°F20°C 81% SSE 13 mphSSE 20 kph 10.0 miles16.1 km 29.94 in1014 hPa 0.15 in96.77 mm --
01:35 01:35 Cloudy With Heavy Thunderstorms Cloudy With Heavy Thunderstorms 74°F24°C 69°F21°C 85% S 14 mphS 22 kph 7.0 miles11.3 km 29.94 in1014 hPa 0.12 in77.42 mm --
01:15 01:15 Cloudy With Thunderstorms Cloudy With Thunderstorms 75°F24°C 69°F21°C 83% SSW 17 mphSSW 28 kph 7.0 miles11.3 km 29.97 in1015 hPa 0.05 in32.26 mm --
00:55 00:55 Mostly Cloudy With Thunderstorms Mostly Cloudy With Thunderstorms 82°F28°C 68°F20°C 61% SW 24 mphSW 39 kph 10.0 miles16.1 km 29.97 in1015 hPa 0.00 in0.00 mm --
00:35 00:35 Mostly Cloudy With Thunderstorms Mostly Cloudy With Thunderstorms 82°F28°C 68°F20°C 64% S 7 mphS 11 kph 10.0 miles16.1 km 29.91 in1013 hPa 0.00 in0.00 mm --
00:15 00:15 Partly Cloudy With Thunderstorms Partly Cloudy With Thunderstorms 82°F28°C 68°F20°C 63% ESE 8 mphESE 13 kph 10.0 miles16.1 km 29.91 in1013 hPa 0.00 in0.00 mm --